| time (UTC) | temp F | wind direction | speed knots | gust knots | rain 1hr in | rain 24hr in | rain mn in | humidity % | barometer mb |
| 20260903183815 | 98 | 158 | 0.9 | 5.2 | 0.00 | 0.00 | 0.00 | 37 | 1011.1 |
| 20260903183315 | 98 | 203 | 0.9 | 5.2 | 0.00 | 0.00 | 0.00 | 37 | 1011.1 |
| 20260903182815 | 97 | 23 | 0.9 | 5.2 | 0.00 | 0.00 | 0.00 | 37 | 1011.1 |
| 20260903182316 | 97 | 203 | 0.9 | 7.0 | 0.00 | 0.00 | 0.00 | 37 | 1011.1 |
| 20260903181816 | 97 | 270 | 0.9 | 7.0 | 0.00 | 0.00 | 0.00 | 37 | 1011.5 |
| 20260903181315 | 97 | 225 | 0.9 | 5.2 | 0.00 | 0.00 | 0.00 | 35 | 1011.1 |
| 20260903180815 | 96 | 180 | 0.9 | 5.2 | 0.00 | 0.00 | 0.00 | 37 | 1011.5 |
| 20260903180315 | 96 | 203 | 0.9 | 5.2 | 0.00 | 0.00 | 0.00 | 39 | 1011.8 |
| 20260903180046 | 96 | 180 | 0.0 | 3.5 | 0.00 | 0.00 | 0.00 | 40 | 1011.8 |
| 20260903175314 | 96 | 113 | 0.9 | 3.5 | 0.00 | 0.00 | 0.00 | 40 | 1011.5 |
| 20260903174815 | 95 | 248 | 0.9 | 3.5 | 0.00 | 0.00 | 0.00 | 40 | 1011.8 |
| 20260903174314 | 95 | 113 | 0.0 | 7.0 | 0.00 | 0.00 | 0.00 | 40 | 1011.8 |
| 20260903173815 | 95 | 158 | 0.9 | 7.0 | 0.00 | 0.00 | 0.00 | 40 | 1011.8 |
| 20260903173316 | 94 | 135 | 0.9 | 5.2 | 0.00 | 0.00 | 0.00 | 40 | 1011.8 |
| 20260903172815 | 94 | 45 | 0.9 | 5.2 | 0.00 | 0.00 | 0.00 | 40 | 1012.1 |
| 20260903172315 | 94 | 248 | 0.9 | 6.1 | 0.00 | 0.00 | 0.00 | 41 | 1012.1 |
| 20260903171814 | 94 | 180 | 0.9 | 6.1 | 0.00 | 0.00 | 0.00 | 40 | 1011.8 |
| 20260903171546 | 94 | 158 | 0.9 | 6.1 | 0.00 | 0.00 | 0.00 | 41 | 1011.8 |
| 20260903170814 | 93 | 180 | 0.9 | 7.0 | 0.00 | 0.00 | 0.00 | 41 | 1011.8 |
| 20260903170314 | 93 | 158 | 0.9 | 7.0 | 0.00 | 0.00 | 0.00 | 43 | 1011.8 |
| 20260903170046 | 93 | 180 | 1.7 | 7.0 | 0.00 | 0.00 | 0.00 | 43 | 1012.1 |
| 20260903165315 | 93 | 180 | 0.9 | 6.1 | 0.00 | 0.00 | 0.00 | 43 | 1011.8 |
| 20260903164817 | 93 | 225 | 0.9 | 6.1 | 0.00 | 0.00 | 0.00 | 43 | 1012.1 |
| 20260903164315 | 92 | 113 | 0.9 | 6.1 | 0.00 | 0.00 | 0.00 | 44 | 1012.1 |
| 20260903164047 | 92 | 180 | 0.9 | 4.3 | 0.00 | 0.00 | 0.00 | 45 | 1012.1 |
| 20260903163315 | 92 | 180 | 0.9 | 4.3 | 0.00 | 0.00 | 0.00 | 45 | 1012.1 |
| 20260903162815 | 92 | 180 | 0.9 | 5.2 | 0.00 | 0.00 | 0.00 | 45 | 1012.1 |
| 20260903162314 | 91 | 113 | 1.7 | 5.2 | 0.00 | 0.00 | 0.00 | 45 | 1012.1 |
| 20260903161813 | 91 | 248 | 0.9 | 5.2 | 0.00 | 0.00 | 0.00 | 45 | 1012.1 |
| 20260903161314 | 91 | 225 | 1.7 | 5.2 | 0.00 | 0.00 | 0.00 | 46 | 1012.1 |
| 20260903160815 | 91 | 158 | 0.9 | 3.5 | 0.00 | 0.00 | 0.00 | 48 | 1012.1 |
| 20260903160315 | 90 | 180 | 0.9 | 5.2 | 0.00 | 0.00 | 0.00 | 46 | 1012.1 |
| 20260903160045 | 90 | 135 | 0.9 | 5.2 | 0.00 | 0.00 | 0.00 | 48 | 1012.1 |
| 20260903155315 | 90 | 248 | 0.9 | 4.3 | 0.00 | 0.00 | 0.00 | 49 | 1012.1 |
| 20260903154815 | 89 | 135 | 0.9 | 4.3 | 0.00 | 0.00 | 0.00 | 50 | 1012.1 |
| 20260903154314 | 89 | 225 | 0.9 | 5.2 | 0.00 | 0.00 | 0.00 | 50 | 1012.5 |
| 20260903153813 | 89 | 180 | 0.9 | 5.2 | 0.00 | 0.00 | 0.00 | 50 | 1012.5 |
| 20260903153314 | 88 | 180 | 0.9 | 4.3 | 0.00 | 0.00 | 0.00 | 50 | 1012.1 |
| 20260903152814 | 88 | 180 | 0.9 | 4.3 | 0.00 | 0.00 | 0.00 | 53 | 1012.1 |
| 20260903152314 | 88 | 225 | 0.9 | 4.3 | 0.00 | 0.00 | 0.00 | 53 | 1012.5 |
| 20260903151756 | 87 | 158 | 0.9 | 4.3 | 0.00 | 0.00 | 0.00 | 54 | 1012.1 |
| 20260903151256 | 87 | 203 | 0.9 | 6.1 | 0.00 | 0.00 | 0.00 | 54 | 1012.1 |
| 20260903150756 | 87 | 225 | 0.9 | 6.1 | 0.00 | 0.00 | 0.00 | 55 | 1012.1 |
| 20260903150256 | 87 | 203 | 0.9 | 5.2 | 0.00 | 0.00 | 0.00 | 55 | 1012.1 |
| 20260903145755 | 86 | 180 | 0.9 | 6.1 | 0.00 | 0.00 | 0.00 | 55 | 1012.1 |
| 20260903145254 | 86 | 158 | 0.9 | 6.1 | 0.00 | 0.00 | 0.00 | 55 | 1012.1 |
| 20260903144755 | 85 | 225 | 0.9 | 5.2 | 0.00 | 0.00 | 0.00 | 58 | 1012.1 |
| 20260903144254 | 85 | 158 | 1.7 | 5.2 | 0.00 | 0.00 | 0.00 | 58 | 1012.1 |
| 20260903143756 | 85 | 180 | 0.9 | 4.3 | 0.00 | 0.00 | 0.00 | 59 | 1012.1 |
| 20260903143531 | 84 | 270 | 0.0 | 4.3 | 0.00 | 0.00 | 0.00 | 59 | 1012.1 |
| 20260903143255 | 84 | 203 | 0.0 | 2.6 | 0.00 | 0.00 | 0.00 | 59 | 1012.1 |
| 20260903142255 | 84 | 180 | 0.9 | 4.3 | 0.00 | 0.00 | 0.00 | 60 | 1012.1 |
| 20260903141755 | 84 | 203 | 0.0 | 3.5 | 0.00 | 0.00 | 0.00 | 60 | 1011.8 |
| 20260903141255 | 83 | 135 | 0.0 | 2.6 | 0.00 | 0.00 | 0.00 | 61 | 1011.8 |
| 20260903140755 | 83 | 158 | 0.0 | 0.9 | 0.00 | 0.00 | 0.00 | 61 | 1011.8 |
| 20260903140254 | 83 | 203 | 0.0 | 0.9 | 0.00 | 0.00 | 0.00 | 61 | 1011.8 |
| 20260903135754 | 83 | 90 | 0.0 | 0.0 | 0.00 | 0.00 | 0.00 | 61 | 1011.8 |
| 20260903135255 | 83 | 338 | 0.0 | 0.0 | 0.00 | 0.00 | 0.00 | 61 | 1011.8 |
| 20260903134800 | 83 | 90 | 0.0 | 0.0 | 0.00 | 0.00 | 0.00 | 60 | 1011.5 |
| 20260903134755 | 83 | 45 | 0.0 | 0.0 | 0.00 | 0.00 | 0.00 | 61 | 1012.1 |
| 20260903134031 | 83 | 45 | 0.0 | 0.0 | 0.00 | 0.00 | 0.00 | 59 | 1011.5 |
| 20260903133755 | 83 | 45 | 0.0 | 0.0 | 0.00 | 0.00 | 0.00 | 60 | 1011.5 |
| 20260903133025 | 83 | 45 | 0.0 | 0.0 | 0.00 | 0.00 | 0.00 | 59 | 1011.5 |
| 20260903132254 | 83 | 23 | 0.0 | 0.0 | 0.00 | 0.00 | 0.00 | 59 | 1011.1 |
| 20260903131753 | 83 | 23 | 0.0 | 0.0 | 0.00 | 0.00 | 0.00 | 59 | 1011.1 |
| 20260903131525 | 83 | 23 | 0.0 | 0.0 | 0.00 | 0.00 | 0.00 | 59 | 1011.1 |
| 20260903130755 | 83 | 113 | 0.0 | 0.0 | 0.00 | 0.00 | 0.00 | 58 | 1011.1 |
| 20260903130526 | 83 | 180 | 0.0 | 0.0 | 0.00 | 0.00 | 0.00 | 58 | 1011.1 |
| 20260903125755 | 83 | 270 | 0.0 | 0.0 | 0.00 | 0.00 | 0.00 | 58 | 1011.1 |
| 20260903125255 | 83 | 90 | 0.0 | 0.0 | 0.00 | 0.00 | 0.00 | 56 | 1011.1 |
| 20260903124755 | 83 | 293 | 0.0 | 0.0 | 0.00 | 0.00 | 0.00 | 56 | 1011.1 |
| 20260903124255 | 83 | 23 | 0.0 | 0.0 | 0.00 | 0.00 | 0.00 | 56 | 1011.1 |
| 20260903123754 | 83 | 90 | 0.0 | 0.0 | 0.00 | 0.00 | 0.00 | 55 | 1010.8 |
| 20260903123254 | 83 | 90 | 0.0 | 0.0 | 0.00 | 0.00 | 0.00 | 56 | 1011.1 |
| 20260903122754 | 83 | 23 | 0.0 | 0.9 | 0.00 | 0.00 | 0.00 | 55 | 1010.8 |
| 20260903122254 | 83 | 45 | 0.0 | 0.9 | 0.00 | 0.00 | 0.00 | 55 | 1010.8 |
| 20260903121755 | 83 | 270 | 0.0 | 0.9 | 0.00 | 0.00 | 0.00 | 55 | 1010.8 |
| 20260903121255 | 83 | 0 | 0.0 | 0.9 | 0.00 | 0.00 | 0.00 | 54 | 1010.8 |
| 20260903120755 | 83 | 315 | 0.0 | 0.0 | 0.00 | 0.00 | 0.00 | 54 | 1010.8 |
| 20260903120255 | 83 | 270 | 0.0 | 0.0 | 0.00 | 0.00 | 0.00 | 53 | 1010.8 |
| 20260903115756 | 83 | 225 | 0.0 | 0.0 | 0.00 | 0.00 | 0.00 | 53 | 1010.8 |
| 20260903115255 | 83 | 203 | 0.0 | 0.0 | 0.00 | 0.00 | 0.00 | 53 | 1010.8 |
| 20260903114754 | 83 | 180 | 0.0 | 0.0 | 0.00 | 0.00 | 0.00 | 53 | 1010.8 |
| 20260903114256 | 84 | 180 | 0.0 | 0.0 | 0.00 | 0.00 | 0.00 | 53 | 1010.5 |
| 20260903113754 | 84 | 23 | 0.0 | 0.0 | 0.00 | 0.00 | 0.00 | 51 | 1010.5 |
| 20260903113255 | 84 | 23 | 0.0 | 0.0 | 0.00 | 0.00 | 0.00 | 53 | 1010.5 |
| 20260903113027 | 84 | 45 | 0.0 | 0.0 | 0.00 | 0.00 | 0.00 | 51 | 1010.5 |
| 20260903112255 | 84 | 338 | 0.0 | 0.0 | 0.00 | 0.00 | 0.00 | 53 | 1010.5 |
| 20260903111756 | 84 | 0 | 0.0 | 0.0 | 0.00 | 0.00 | 0.00 | 53 | 1010.5 |
| 20260903111255 | 84 | 270 | 0.0 | 0.0 | 0.00 | 0.00 | 0.00 | 50 | 1010.5 |
| 20260903110757 | 84 | 270 | 0.0 | 0.0 | 0.00 | 0.00 | 0.00 | 51 | 1010.0 |
| 20260903110753 | 84 | 0 | 0.0 | 0.0 | 0.00 | 0.00 | 0.00 | 51 | 1010.5 |
| 20260903105754 | 84 | 158 | 0.0 | 0.0 | 0.00 | 0.00 | 0.00 | 50 | 1010.0 |
| 20260903105254 | 84 | 158 | 0.0 | 0.0 | 0.00 | 0.00 | 0.00 | 49 | 1010.5 |
| 20260903105026 | 84 | 180 | 0.0 | 0.9 | 0.00 | 0.00 | 0.00 | 50 | 1010.5 |
| 20260903104257 | 84 | 180 | 0.0 | 1.7 | 0.00 | 0.00 | 0.00 | 49 | 1010.5 |
| 20260903103756 | 84 | 203 | 0.0 | 1.7 | 0.00 | 0.00 | 0.00 | 49 | 1010.5 |
| 20260903103526 | 85 | 203 | 0.0 | 0.0 | 0.00 | 0.00 | 0.00 | 50 | 1010.5 |
| 20260903102757 | 85 | 203 | 0.0 | 0.0 | 0.00 | 0.00 | 0.00 | 50 | 1010.0 |
| 20260903102254 | 85 | 293 | 0.0 | 0.0 | 0.00 | 0.00 | 0.00 | 50 | 1010.5 |
| 20260903101754 | 85 | 45 | 0.0 | 0.0 | 0.00 | 0.00 | 0.00 | 50 | 1010.0 |
| 20260903101254 | 85 | 90 | 0.0 | 0.0 | 0.00 | 0.00 | 0.00 | 50 | 1010.0 |
| 20260903100754 | 85 | 45 | 0.0 | 0.0 | 0.00 | 0.00 | 0.00 | 53 | 1010.0 |
| 20260903100254 | 85 | 23 | 0.0 | 0.0 | 0.00 | 0.00 | 0.00 | 51 | 1010.5 |
| 20260903095755 | 85 | 180 | 0.0 | 0.0 | 0.00 | 0.00 | 0.00 | 51 | 1010.5 |
| 20260903095255 | 85 | 68 | 0.0 | 2.6 | 0.00 | 0.00 | 0.00 | 51 | 1010.0 |
| 20260903094755 | 85 | 68 | 0.0 | 2.6 | 0.00 | 0.00 | 0.00 | 50 | 1010.0 |
| 20260903094526 | 86 | 23 | 0.0 | 0.0 | 0.00 | 0.00 | 0.00 | 50 | 1010.0 |
| 20260903093755 | 86 | 45 | 0.0 | 0.0 | 0.00 | 0.00 | 0.00 | 50 | 1010.5 |
| 20260903093254 | 86 | 68 | 0.0 | 0.0 | 0.00 | 0.00 | 0.00 | 50 | 1010.0 |
| 20260903092754 | 86 | 113 | 0.0 | 0.0 | 0.00 | 0.00 | 0.00 | 50 | 1010.0 |
| 20260903092253 | 87 | 248 | 0.0 | 0.0 | 0.00 | 0.00 | 0.00 | 51 | 1010.0 |
| 20260903091755 | 87 | 315 | 0.0 | 0.0 | 0.00 | 0.00 | 0.00 | 50 | 1010.0 |
| 20260903091255 | 87 | 45 | 0.0 | 0.0 | 0.00 | 0.00 | 0.00 | 50 | 1010.0 |
| 20260903091026 | 87 | 270 | 0.0 | 0.0 | 0.00 | 0.00 | 0.00 | 49 | 1010.0 |
| 20260903090255 | 87 | 270 | 0.0 | 0.0 | 0.00 | 0.00 | 0.00 | 50 | 1010.0 |
| 20260903085755 | 87 | 270 | 0.0 | 0.0 | 0.00 | 0.00 | 0.00 | 50 | 1010.0 |
| 20260903085255 | 87 | 270 | 0.0 | 0.9 | 0.00 | 0.00 | 0.00 | 48 | 1010.0 |
| 20260903084754 | 88 | 270 | 0.0 | 0.9 | 0.00 | 0.00 | 0.00 | 49 | 1010.0 |
| 20260903084524 | 88 | 180 | 0.0 | 0.9 | 0.00 | 0.00 | 0.00 | 48 | 1010.5 |
| 20260903084242 | 88 | 180 | 0.0 | 2.6 | 0.00 | 0.00 | 0.00 | 48 | 1010.5 |
| 20260903084228 | 88 | 225 | 0.0 | 1.7 | 0.00 | 0.00 | 0.00 | 48 | 1010.0 |
| 20260903082755 | 88 | 180 | 0.0 | 2.6 | 0.00 | 0.00 | 0.00 | 48 | 1010.5 |
| 20260903082255 | 88 | 203 | 0.0 | 1.7 | 0.00 | 0.00 | 0.00 | 46 | 1010.0 |
| 20260903081755 | 88 | 180 | 0.0 | 1.7 | 0.00 | 0.00 | 0.00 | 46 | 1010.5 |
| 20260903081255 | 89 | 203 | 0.0 | 0.9 | 0.00 | 0.00 | 0.00 | 46 | 1010.0 |
| 20260903081026 | 89 | 203 | 0.0 | 1.7 | 0.00 | 0.00 | 0.00 | 46 | 1010.0 |
| 20260903080254 | 89 | 203 | 0.0 | 1.7 | 0.00 | 0.00 | 0.00 | 46 | 1010.0 |
| 20260903075754 | 89 | 203 | 0.0 | 0.0 | 0.00 | 0.00 | 0.00 | 46 | 1010.0 |
| 20260903075254 | 89 | 203 | 0.0 | 0.9 | 0.00 | 0.00 | 0.00 | 46 | 1010.0 |
| 20260903075026 | 89 | 203 | 0.0 | 1.7 | 0.00 | 0.00 | 0.00 | 45 | 1010.0 |
| 20260903074255 | 89 | 180 | 0.0 | 1.7 | 0.00 | 0.00 | 0.00 | 45 | 1010.0 |
| 20260903073756 | 89 | 180 | 0.0 | 0.9 | 0.00 | 0.00 | 0.00 | 45 | 1010.0 |
| 20260903073526 | 89 | 203 | 0.0 | 1.7 | 0.00 | 0.00 | 0.00 | 45 | 1010.0 |
| 20260903072755 | 90 | 270 | 0.0 | 2.6 | 0.00 | 0.00 | 0.00 | 45 | 1010.0 |
| 20260903072525 | 90 | 248 | 0.0 | 2.6 | 0.00 | 0.00 | 0.00 | 45 | 1010.0 |
| 20260903072025 | 90 | 270 | 0.0 | 0.9 | 0.00 | 0.00 | 0.00 | 45 | 1010.0 |
| 20260903071255 | 90 | 270 | 0.0 | 6.1 | 0.00 | 0.00 | 0.00 | 45 | 1010.5 |
| 20260903070754 | 90 | 270 | 0.0 | 6.1 | 0.00 | 0.00 | 0.00 | 45 | 1010.5 |
| 20260903070253 | 90 | 180 | 0.0 | 3.5 | 0.00 | 0.00 | 0.00 | 45 | 1010.5 |
| 20260903070025 | 90 | 203 | 0.9 | 3.5 | 0.00 | 0.00 | 0.00 | 44 | 1010.5 |
| 20260903065255 | 90 | 203 | 0.9 | 2.6 | 0.00 | 0.00 | 0.00 | 44 | 1010.0 |
| 20260903064755 | 90 | 180 | 0.9 | 3.5 | 0.00 | 0.00 | 0.00 | 44 | 1010.0 |
| 20260903064254 | 90 | 180 | 0.9 | 3.5 | 0.00 | 0.00 | 0.00 | 44 | 1010.0 |
| 20260903063755 | 90 | 225 | 0.0 | 0.0 | 0.00 | 0.00 | 0.00 | 44 | 1009.7 |
| 20260903063255 | 91 | 248 | 0.0 | 0.0 | 0.00 | 0.00 | 0.00 | 44 | 1010.0 |
| 20260903062753 | 91 | 248 | 0.0 | 0.0 | 0.00 | 0.00 | 0.00 | 43 | 1009.7 |
| 20260903062254 | 91 | 248 | 0.0 | 0.0 | 0.00 | 0.00 | 0.00 | 41 | 1009.7 |
| 20260903061753 | 91 | 270 | 0.0 | 0.0 | 0.00 | 0.00 | 0.00 | 44 | 1009.7 |
| 20260903061254 | 91 | 203 | 0.0 | 0.0 | 0.00 | 0.00 | 0.00 | 43 | 1010.0 |
| 20260903060754 | 91 | 203 | 0.0 | 0.0 | 0.00 | 0.00 | 0.00 | 43 | 1010.0 |
| 20260903060255 | 92 | 225 | 0.0 | 0.0 | 0.00 | 0.00 | 0.00 | 43 | 1009.7 |
| 20260903055755 | 92 | 225 | 0.0 | 0.0 | 0.00 | 0.00 | 0.00 | 43 | 1009.7 |
| 20260903055525 | 92 | 203 | 0.0 | 0.9 | 0.00 | 0.00 | 0.00 | 40 | 1009.7 |
| 20260903055025 | 92 | 203 | 0.0 | 0.9 | 0.00 | 0.00 | 0.00 | 40 | 1010.0 |
| 20260903054254 | 92 | 203 | 0.0 | 0.9 | 0.00 | 0.00 | 0.00 | 40 | 1009.7 |
| 20260903053755 | 93 | 225 | 0.0 | 0.9 | 0.00 | 0.00 | 0.00 | 40 | 1010.0 |
| 20260903053254 | 93 | 225 | 0.0 | 0.9 | 0.00 | 0.00 | 0.00 | 39 | 1009.7 |
| 20260903052754 | 93 | 203 | 0.0 | 0.0 | 0.00 | 0.00 | 0.00 | 39 | 1009.7 |
| 20260903052254 | 93 | 203 | 0.0 | 0.0 | 0.00 | 0.00 | 0.00 | 37 | 1010.0 |
| 20260903051755 | 93 | 225 | 0.0 | 0.9 | 0.00 | 0.00 | 0.00 | 37 | 1009.7 |
| 20260903051255 | 93 | 225 | 0.0 | 0.9 | 0.00 | 0.00 | 0.00 | 37 | 1010.0 |
| 20260903050755 | 93 | 225 | 0.0 | 2.6 | 0.00 | 0.00 | 0.00 | 37 | 1010.0 |
| 20260903050255 | 93 | 225 | 0.0 | 2.6 | 0.00 | 0.00 | 0.00 | 37 | 1009.7 |
| 20260903045753 | 94 | 203 | 0.0 | 1.7 | 0.00 | 0.00 | 0.00 | 37 | 1009.7 |
| 20260903045253 | 94 | 203 | 0.0 | 1.7 | 0.00 | 0.00 | 0.00 | 37 | 1009.7 |
| 20260903044754 | 94 | 225 | 0.0 | 2.6 | 0.00 | 0.00 | 0.00 | 37 | 1009.7 |
| 20260903044524 | 94 | 203 | 0.0 | 2.6 | 0.00 | 0.00 | 0.00 | 37 | 1009.3 |
| 20260903043755 | 94 | 225 | 0.0 | 2.6 | 0.00 | 0.00 | 0.00 | 35 | 1009.7 |
| 20260903043255 | 94 | 225 | 0.0 | 1.7 | 0.00 | 0.00 | 0.00 | 35 | 1009.7 |
| 20260903042755 | 94 | 270 | 0.0 | 1.7 | 0.00 | 0.00 | 0.00 | 37 | 1009.7 |
| 20260903042254 | 94 | 270 | 0.0 | 0.9 | 0.00 | 0.00 | 0.00 | 35 | 1009.7 |
| 20260903041755 | 94 | 203 | 0.0 | 0.9 | 0.00 | 0.00 | 0.00 | 37 | 1009.7 |
| 20260903041254 | 94 | 225 | 0.0 | 2.6 | 0.00 | 0.00 | 0.00 | 37 | 1009.7 |
| 20260903040754 | 94 | 248 | 0.0 | 3.5 | 0.00 | 0.00 | 0.00 | 35 | 1009.7 |
| 20260903040524 | 94 | 270 | 0.0 | 3.5 | 0.00 | 0.00 | 0.00 | 35 | 1009.7 |
| 20260903035754 | 94 | 248 | 0.0 | 2.6 | 0.00 | 0.00 | 0.00 | 37 | 1009.7 |
| 20260903035254 | 94 | 293 | 0.0 | 3.5 | 0.00 | 0.00 | 0.00 | 35 | 1009.3 |
| 20260903034754 | 94 | 270 | 0.0 | 3.5 | 0.00 | 0.00 | 0.00 | 35 | 1009.3 |
| 20260903034255 | 95 | 270 | 0.0 | 2.6 | 0.00 | 0.00 | 0.00 | 35 | 1009.3 |
| 20260903033755 | 95 | 270 | 0.0 | 2.6 | 0.00 | 0.00 | 0.00 | 35 | 1009.7 |
| 20260903033254 | 95 | 270 | 0.0 | 2.6 | 0.00 | 0.00 | 0.00 | 35 | 1009.3 |
| 20260903033026 | 95 | 270 | 0.0 | 3.5 | 0.00 | 0.00 | 0.00 | 35 | 1009.0 |
| 20260903032253 | 95 | 270 | 0.0 | 3.5 | 0.00 | 0.00 | 0.00 | 35 | 1009.3 |
| 20260903031753 | 95 | 315 | 0.0 | 4.3 | 0.00 | 0.00 | 0.00 | 35 | 1009.0 |
| 20260903031525 | 95 | 338 | 0.9 | 4.3 | 0.00 | 0.00 | 0.00 | 35 | 1009.0 |
| 20260903031025 | 96 | 0 | 0.0 | 3.5 | 0.00 | 0.00 | 0.00 | 35 | 1008.7 |
| 20260903030255 | 96 | 270 | 0.9 | 3.5 | 0.00 | 0.00 | 0.00 | 35 | 1009.0 |
| 20260903025754 | 96 | 225 | 0.0 | 3.5 | 0.00 | 0.00 | 0.00 | 34 | 1009.0 |
| 20260903025254 | 96 | 293 | 0.0 | 3.5 | 0.00 | 0.00 | 0.00 | 32 | 1009.0 |
| 20260903025026 | 96 | 315 | 0.0 | 3.5 | 0.00 | 0.00 | 0.00 | 32 | 1008.7 |
| 20260903024254 | 96 | 270 | 0.0 | 3.5 | 0.00 | 0.00 | 0.00 | 32 | 1008.7 |
| 20260903023753 | 96 | 248 | 0.9 | 4.3 | 0.00 | 0.00 | 0.00 | 31 | 1008.7 |
| 20260903023253 | 96 | 270 | 0.9 | 4.3 | 0.00 | 0.00 | 0.00 | 31 | 1008.7 |
| 20260903022753 | 97 | 248 | 0.0 | 4.3 | 0.00 | 0.00 | 0.00 | 31 | 1008.3 |
| 20260903022253 | 97 | 203 | 0.0 | 2.6 | 0.00 | 0.00 | 0.00 | 32 | 1008.3 |
| 20260903021754 | 97 | 248 | 0.0 | 1.7 | 0.00 | 0.00 | 0.00 | 32 | 1008.3 |
| 20260903021254 | 97 | 293 | 0.0 | 5.2 | 0.00 | 0.00 | 0.00 | 34 | 1008.3 |
| 20260903020755 | 97 | 270 | 0.9 | 5.2 | 0.00 | 0.00 | 0.00 | 32 | 1008.3 |
| 20260903020254 | 97 | 270 | 0.9 | 4.3 | 0.00 | 0.00 | 0.00 | 32 | 1008.3 |
| 20260903015754 | 98 | 270 | 0.9 | 4.3 | 0.00 | 0.00 | 0.00 | 31 | 1008.3 |
| 20260903015253 | 98 | 180 | 0.9 | 4.3 | 0.00 | 0.00 | 0.00 | 31 | 1008.3 |
| 20260903014758 | 98 | 225 | 0.0 | 4.3 | 0.00 | 0.00 | 0.00 | 31 | 1008.3 |
| 20260903014253 | 98 | 270 | 0.9 | 4.3 | 0.00 | 0.00 | 0.00 | 31 | 1008.0 |
| 20260903013753 | 98 | 270 | 0.0 | 4.3 | 0.00 | 0.00 | 0.00 | 30 | 1008.0 |
| 20260903013253 | 98 | 270 | 0.9 | 5.2 | 0.00 | 0.00 | 0.00 | 30 | 1008.0 |
| 20260903012754 | 99 | 180 | 0.9 | 5.2 | 0.00 | 0.00 | 0.00 | 30 | 1008.0 |
| 20260903012255 | 99 | 248 | 0.9 | 4.3 | 0.00 | 0.00 | 0.00 | 30 | 1008.0 |
| 20260903011754 | 99 | 270 | 0.9 | 4.3 | 0.00 | 0.00 | 0.00 | 30 | 1008.0 |
| 20260903011254 | 99 | 248 | 0.9 | 4.3 | 0.00 | 0.00 | 0.00 | 30 | 1008.0 |
| 20260903010753 | 100 | 203 | 0.9 | 5.2 | 0.00 | 0.00 | 0.00 | 30 | 1008.0 |
| 20260903010253 | 100 | 270 | 0.9 | 5.2 | 0.00 | 0.00 | 0.00 | 30 | 1008.0 |
| 20260903005753 | 100 | 338 | 0.0 | 4.3 | 0.00 | 0.00 | 0.00 | 30 | 1008.0 |
| 20260903005252 | 100 | 270 | 0.0 | 2.6 | 0.00 | 0.00 | 0.00 | 30 | 1008.3 |
| 20260903004752 | 100 | 270 | 0.9 | 4.3 | 0.00 | 0.00 | 0.00 | 29 | 1008.0 |
| 20260903004254 | 100 | 203 | 0.9 | 6.1 | 0.00 | 0.00 | 0.00 | 27 | 1008.0 |
| 20260903003754 | 101 | 225 | 0.9 | 6.1 | 0.00 | 0.00 | 0.00 | 29 | 1008.0 |
| 20260903003253 | 101 | 270 | 0.9 | 3.5 | 0.00 | 0.00 | 0.00 | 29 | 1008.0 |
| 20260903002753 | 101 | 270 | 0.0 | 5.2 | 0.00 | 0.00 | 0.00 | 29 | 1008.0 |
| 20260903002253 | 101 | 338 | 0.9 | 5.2 | 0.00 | 0.00 | 0.00 | 29 | 1008.3 |
| 20260903001752 | 102 | 315 | 0.9 | 6.1 | 0.00 | 0.00 | 0.00 | 29 | 1008.0 |
| 20260903001252 | 102 | 45 | 0.9 | 6.1 | 0.00 | 0.00 | 0.00 | 29 | 1008.0 |
| 20260903000752 | 102 | 0 | 0.9 | 5.2 | 0.00 | 0.00 | 0.00 | 29 | 1008.3 |
| 20260903000252 | 102 | 270 | 0.9 | 5.2 | 0.00 | 0.00 | 0.00 | 29 | 1008.3 |
| 20260902235754 | 102 | 90 | 0.9 | 7.8 | 0.00 | 0.00 | 0.00 | 27 | 1008.3 |
| 20260902235254 | 103 | 270 | 1.7 | 7.8 | 0.00 | 0.00 | 0.00 | 27 | 1008.3 |
| 20260902234753 | 103 | 315 | 0.9 | 5.2 | 0.00 | 0.00 | 0.00 | 29 | 1008.3 |
| 20260902234253 | 104 | 225 | 0.9 | 5.2 | 0.00 | 0.00 | 0.00 | 27 | 1008.3 |
| 20260902233753 | 104 | 315 | 0.9 | 4.3 | 0.00 | 0.00 | 0.00 | 27 | 1008.3 |
| 20260902233259 | 104 | 23 | 0.9 | 5.2 | 0.00 | 0.00 | 0.00 | 27 | 1008.3 |
| 20260902232752 | 104 | 45 | 0.9 | 5.2 | 0.00 | 0.00 | 0.00 | 27 | 1008.3 |
| 20260902232523 | 104 | 338 | 0.9 | 5.2 | 0.00 | 0.00 | 0.00 | 27 | 1008.3 |
| 20260902231751 | 104 | 135 | 0.9 | 4.3 | 0.00 | 0.00 | 0.00 | 25 | 1008.7 |
| 20260902231253 | 104 | 270 | 0.9 | 5.2 | 0.00 | 0.00 | 0.00 | 25 | 1008.7 |
| 20260902230757 | 104 | 270 | 0.9 | 5.2 | 0.00 | 0.00 | 0.00 | 27 | 1008.7 |
| 20260902230253 | 104 | 338 | 0.9 | 5.2 | 0.00 | 0.00 | 0.00 | 27 | 1008.7 |
| 20260902225753 | 104 | 315 | 0.9 | 5.2 | 0.00 | 0.00 | 0.00 | 27 | 1008.7 |
| 20260902225254 | 103 | 180 | 0.9 | 6.1 | 0.00 | 0.00 | 0.00 | 25 | 1009.0 |
| 20260902225022 | 103 | 293 | 0.9 | 6.1 | 0.00 | 0.00 | 0.00 | 27 | 1008.7 |
| 20260902224252 | 103 | 270 | 0.9 | 5.2 | 0.00 | 0.00 | 0.00 | 27 | 1009.0 |
| 20260902223751 | 103 | 180 | 0.9 | 5.2 | 0.00 | 0.00 | 0.00 | 27 | 1009.0 |
| 20260902223252 | 103 | 225 | 0.9 | 5.2 | 0.00 | 0.00 | 0.00 | 25 | 1009.0 |
| 20260902222753 | 103 | 45 | 0.9 | 5.2 | 0.00 | 0.00 | 0.00 | 27 | 1009.3 |
| 20260902222524 | 103 | 248 | 0.9 | 5.2 | 0.00 | 0.00 | 0.00 | 25 | 1009.3 |
| 20260902222024 | 103 | 270 | 0.9 | 7.0 | 0.00 | 0.00 | 0.00 | 27 | 1009.3 |
| 20260902221253 | 103 | 203 | 1.7 | 7.0 | 0.00 | 0.00 | 0.00 | 27 | 1009.3 |
| 20260902220753 | 104 | 225 | 0.9 | 4.3 | 0.00 | 0.00 | 0.00 | 27 | 1009.3 |
| 20260902220522 | 104 | 203 | 0.9 | 4.3 | 0.00 | 0.00 | 0.00 | 27 | 1009.3 |
| 20260902220022 | 103 | 180 | 0.9 | 6.1 | 0.00 | 0.00 | 0.00 | 27 | 1009.7 |
| 20260902215248 | 103 | 180 | 0.9 | 7.0 | 0.00 | 0.00 | 0.00 | 27 | 1009.7 |
| 20260902215005 | 103 | 180 | 1.7 | 7.0 | 0.00 | 0.00 | 0.00 | 27 | 1009.7 |
| 20260902214234 | 103 | 158 | 1.7 | 6.1 | 0.00 | 0.00 | 0.00 | 27 | 1009.7 |
| 20260902213733 | 103 | 180 | 0.9 | 6.1 | 0.00 | 0.00 | 0.00 | 27 | 1009.7 |
| 20260902213234 | 103 | 158 | 0.9 | 6.1 | 0.00 | 0.00 | 0.00 | 27 | 1009.7 |
| 20260902212733 | 102 | 270 | 0.9 | 7.0 | 0.00 | 0.00 | 0.00 | 27 | 1010.0 |
| 20260902212233 | 102 | 180 | 1.7 | 7.8 | 0.00 | 0.00 | 0.00 | 27 | 1010.0 |
| 20260902211732 | 102 | 225 | 0.9 | 7.8 | 0.00 | 0.00 | 0.00 | 30 | 1010.0 |
| 20260902211231 | 101 | 203 | 0.9 | 7.0 | 0.00 | 0.00 | 0.00 | 30 | 1010.0 |
| 20260902211003 | 101 | 180 | 1.7 | 9.6 | 0.00 | 0.00 | 0.00 | 30 | 1010.0 |
| 20260902210232 | 101 | 180 | 1.7 | 9.6 | 0.00 | 0.00 | 0.00 | 29 | 1010.5 |
| 20260902205732 | 100 | 180 | 1.7 | 7.0 | 0.00 | 0.00 | 0.00 | 30 | 1010.5 |
| 20260902205233 | 100 | 113 | 0.0 | 2.6 | 0.00 | 0.00 | 0.00 | 30 | 1010.8 |
| 20260902204733 | 100 | 90 | 0.0 | 6.1 | 0.00 | 0.00 | 0.00 | 30 | 1010.8 |
| 20260902204233 | 100 | 338 | 1.7 | 7.0 | 0.00 | 0.00 | 0.00 | 30 | 1011.1 |
| 20260902203733 | 100 | 180 | 0.9 | 7.0 | 0.00 | 0.00 | 0.00 | 30 | 1011.1 |
| 20260902203231 | 100 | 225 | 1.7 | 6.1 | 0.00 | 0.00 | 0.00 | 30 | 1011.5 |
| 20260902202731 | 99 | 158 | 0.9 | 8.7 | 0.00 | 0.00 | 0.00 | 32 | 1011.1 |
| 20260902202231 | 99 | 203 | 1.7 | 9.6 | 0.00 | 0.00 | 0.00 | 31 | 1011.1 |
| 20260902201731 | 99 | 158 | 1.7 | 9.6 | 0.00 | 0.00 | 0.00 | 31 | 1011.5 |
| 20260902201503 | 99 | 203 | 0.9 | 4.3 | 0.00 | 0.00 | 0.00 | 31 | 1011.5 |
| 20260902200732 | 99 | 158 | 0.9 | 6.1 | 0.00 | 0.00 | 0.00 | 31 | 1011.5 |
| 20260902200503 | 99 | 293 | 0.9 | 7.8 | 0.00 | 0.00 | 0.00 | 30 | 1011.8 |
| 20260902195733 | 99 | 180 | 1.7 | 7.8 | 0.00 | 0.00 | 0.00 | 30 | 1011.8 |
| 20260902195233 | 99 | 270 | 1.7 | 7.0 | 0.00 | 0.00 | 0.00 | 31 | 1012.1 |
| 20260902194736 | 99 | 180 | 0.9 | 6.1 | 0.00 | 0.00 | 0.00 | 32 | 1011.8 |
| 20260902194231 | 98 | 180 | 1.7 | 7.8 | 0.00 | 0.00 | 0.00 | 30 | 1011.8 |
| 20260902193730 | 98 | 180 | 0.9 | 7.8 | 0.00 | 0.00 | 0.00 | 31 | 1012.1 |
| 20260902193230 | 98 | 180 | 1.7 | 7.0 | 0.00 | 0.00 | 0.00 | 31 | 1012.1 |
| 20260902192732 | 98 | 248 | 1.7 | 7.0 | 0.00 | 0.00 | 0.00 | 30 | 1012.1 |
| 20260902192232 | 98 | 180 | 0.9 | 6.1 | 0.00 | 0.00 | 0.00 | 31 | 1012.1 |
| 20260902191731 | 98 | 180 | 0.9 | 6.1 | 0.00 | 0.00 | 0.00 | 32 | 1012.1 |
| 20260902191218 | 98 | 203 | 1.7 | 7.0 | 0.00 | 0.00 | 0.00 | 31 | 1012.1 |
| 20260902190944 | 98 | 225 | 1.7 | 7.0 | 0.00 | 0.00 | 0.00 | 31 | 1012.5 |
| 20260902190931 | 98 | 180 | 1.7 | 7.0 | 0.00 | 0.00 | 0.00 | 31 | 1012.5 |
| 20260902185713 | 98 | 248 | 1.7 | 7.8 | 0.00 | 0.00 | 0.00 | 31 | 1012.5 |
| 20260902185212 | 97 | 225 | 1.7 | 7.8 | 0.00 | 0.00 | 0.00 | 32 | 1012.5 |
| 20260902184711 | 97 | 180 | 0.9 | 7.8 | 0.00 | 0.00 | 0.00 | 34 | 1012.5 |